sat.trackr.live / text

‹ back to catalog

STARLINK-3075

NORAD 49409 · 2021-104B

PAYLOAD ACTIVE UNKNOWN

§ Identity

Operator
Country
US
Launch date
2021-11-13
Launch site
AFETR
Launch vehicle
Mass (kg)
RCS (m²)

Purposes: comms

External: N2YO · Heavens-Above · Gunter

§ Orbital elements

Epoch: 2026-09-20T03:32:39.623712Z

Period
93.90 min
Inclination
53.1599°
Eccentricity
0.0001083
Mean motion
15.33548687 rev/d
Perigee alt
464.5 km
Apogee alt
466.0 km
Semi-major
6,843.4 km
B*
2.9218e-5
RAAN
61.5474°
Arg perigee
88.2200°
Mean anomaly
271.8926°
Rev number
26,819

§ Raw data

STARLINK-30751 49409U 21104B   26263.14768083  .00000588  00000+0  29218-4 0  99962 49409  53.1599  61.5474 0001083  88.2200 271.8926 15.33548687268190

JSON: /api/v1/satellites/49409 · /tle

For live sub-satellite position, see the globe view (requires WebGL).

§ Visibility from observer

Set your observer location to see the next 7 days of passes ≥ 10°. The values pass through the URL so the page stays shareable.

No JS? Fill the form by hand. The geolocation button needs JavaScript.